Regional Weather Roundup
Issued by NWS

Home | Current Version | Previous Version | Text Only | Print | Product List | Glossary Off
Versions: 1 2 3 4 5 6 7 8 9 10 11 12 13 14 15 16 17 18 19 20 21 22 23 24 25 26 27 28 29 30 31 32 33 34 35 36 37 38 39 40 41 42 43 44 45 46 47 48 49 50

000
ASUS43 KOAX 240610
RWRNE

WEATHER ROUNDUP FOR NEBRASKA
NATIONAL WEATHER SERVICE OMAHA NE
1200 AM CST WED JAN 24 2018

NOTES: SATELLITE DATA IS BEING USED TO AUGMENT CLOUD COVER ABOVE
       12000 FEET.
       "FAIR" INDICATES FEW OR NO CLOUDS BELOW 12,000 FEET WITH NO
       SIGNIFICANT WEATHER AND/OR OBSTRUCTIONS TO VISIBILITY.


NEZ001>004-019>022-054>056-240700-
NEBRASKA PANHANDLE

CITY           SKY/WX    TMP DP  RH WIND       PRES   REMARKS
SCOTTSBLUFF    CLEAR     12   8  84 S6        30.24S WCI   3
6HR MIN TEMP:  11; 6HR MAX TEMP:  28;

ALLIANCE       CLEAR      5   3  91 SW7       30.22F WCI  -7
6HR MIN TEMP:   4; 6HR MAX TEMP:  24;

CHADRON        CLEAR      9   5  84 CALM      30.22F
6HR MIN TEMP:   8; 6HR MAX TEMP:  26;

GORDON         FAIR      14   8  78 W5        30.20S WCI   6
6HR MIN TEMP:  13; 6HR MAX TEMP:  29;

KIMBALL        CLEAR     15  10  83 SW13      30.23F WCI   0
SIDNEY         CLEAR     13   8  81 SW12      30.25F WCI  -1
6HR MIN TEMP:  12; 6HR MAX TEMP:  27;

$$

NEZ057>060-069>072-079>082-240700-
SOUTHWEST NEBRASKA

CITY           SKY/WX    TMP DP  RH WIND       PRES   REMARKS
NORTH PLATTE   CLEAR      9   7  92 NW8       30.28S WCI  -3
6HR MIN TEMP:   9; 6HR MAX TEMP:  29;

IMPERIAL       CLEAR     19  13  77 W8        30.29F WCI   9
6HR MIN TEMP:  19; 6HR MAX TEMP:  33;

LEXINGTON      CLEAR     22  17  81 NW10      30.28S WCI  11
MCCOOK         CLEAR     25  18  74 W15       30.31R WCI  13
6HR MIN TEMP:  21; 6HR MAX TEMP:  34;

OGALLALA       CLEAR     19  13  76 SW7       30.27S WCI  10
$$

NEZ005>010-023>029-035>040-094-240700-
NORTH CENTRAL NEBRASKA

CITY           SKY/WX    TMP DP  RH WIND       PRES   REMARKS
VALENTINE      CLEAR     21  16  81 SW9       30.23R WCI  11
6HR MIN TEMP:  20; 6HR MAX TEMP:  34;

AINSWORTH      CLEAR     22  18  84 W7        30.22S WCI  14
BROKEN BOW     CLEAR     29  18  63 NW16      30.24R WCI  17
6HR MIN TEMP:  29; 6HR MAX TEMP:  34;

O`NEILL        CLEAR     26  22  84 NW8       30.22R WCI  18
ORD            CLEAR     28  20  71 W9        30.23R WCI  19
6HR MIN TEMP:  26; 6HR MAX TEMP:  35;

THEDFORD       CLEAR     20  15  82 W7        30.25S WCI  11
$$

NEZ041-046>049-061>064-073>077-083>087-240700-
SOUTH CENTRAL NEBRASKA

CITY           SKY/WX    TMP DP  RH WIND       PRES   REMARKS
GRAND ISLAND   CLEAR     24  21  88 W13       30.25R WCI  12
6HR MIN TEMP:  24; 6HR MAX TEMP:  32;

AURORA         CLEAR     27  23  85 W12       30.24S WCI  16
HASTINGS       CLEAR     27  21  78 W12       30.26R WCI  17
6HR MIN TEMP:  27; 6HR MAX TEMP:  34;

HEBRON         CLEAR     31  27  83 W5        30.27S WCI  27
HOLDREGE       CLEAR     26  22  85 NW8       30.27F WCI  18
KEARNEY        CLEAR     26  21  81 W12       30.27R WCI  16
YORK           CLEAR     27  27 100 NW12      30.23S WCI  16
$$

NEZ011>018-030>034-042>045-240700-
NORTHEAST NEBRASKA

CITY           SKY/WX    TMP DP  RH WIND       PRES   REMARKS
ALBION         CLEAR     27  21  79 NW9       30.22R WCI  18
BLAIR          CLEAR     23  21  94 W3        30.21R FOG
COLUMBUS       CLEAR     15  14  95 W5        30.23R WCI   8
FREMONT        CLEAR     18  17  97 W5        30.22R WCI  11
TEKAMAH        CLEAR     14  13  95 CALM      30.22S FOG
6HR MIN TEMP:  14; 6HR MAX TEMP:  25;

WAYNE          PTCLDY    13  12  96 CALM      30.20S
$$

NEZ050>053-065>068-078-088>093-240700-
SOUTHEAST NEBRASKA

CITY           SKY/WX    TMP DP  RH WIND       PRES   REMARKS
LINCOLN        CLEAR     22  21  96 CALM      30.24S
6HR MIN TEMP:  20; 6HR MAX TEMP:  30;

OMAHA EPPLEY   CLEAR     21  19  92 SE3       30.23S
6HR MIN TEMP:  19; 6HR MAX TEMP:  26;

BEATRICE       CLEAR     29  26  92 W8        30.25S WCI  21
FALLS CITY     CLEAR     26  23  88 CALM      30.24R
6HR MIN TEMP:  26; 6HR MAX TEMP:  30;

NEBRASKA CITY  CLEAR     28  28  99 W10       30.22S WCI  18
PLATTSMOUTH    PTCLDY    25  23  92 W7        30.22R WCI  18
$$

NEZ044-045-051>053-067-240700-
OMAHA AREA

CITY           SKY/WX    TMP DP  RH WIND       PRES   REMARKS
OMAHA EPPLEY   CLEAR     21  19  92 SE3       30.23S
6HR MIN TEMP:  19; 6HR MAX TEMP:  26;

BLAIR          CLEAR     23  21  94 W3        30.21R FOG
FREMONT        CLEAR     18  17  97 W5        30.22R WCI  11
MILLARD        CLEAR     20  18  92 CALM      30.24R FOG
OFFUTT AFB     CLEAR     19  17  93 CALM      30.23R
PLATTSMOUTH    PTCLDY    25  23  92 W7        30.22R WCI  18
WAHOO          FAIR      23  22  96 N3        30.22S
$$



USA.gov is the U.S. government's official web portal to all federal, state and local government web resources and services.